[[{"header":{"parameterUnit":"m.s-1","parameterCategory":1,"la1":30.2991,"la2":30.254,"lo1":-89.0895,"lo2":-89.0444,"dy":0.0017,"dx":0.0017,"nx":28,"ny":28,"refTime":"2025-11-07T03:00:00:Z","depth":0,"parameterNumber":2,"parameterNumberName":"U-component_of_WINDS"},"data":[0,0,0,0,0,0,0,0,0,0,0,0,0,0,0,0,0,0,0,0,0,0,0,0,0,0,0,0,0,0,0,0,0,0,0,0,0,0,0,0,0,0,0,0,0,0,0,0,0,0,0,0,0,0,0,0,0,0,-0.0551,-0.0551,0,-0.0479,-0.0478,-0.0477,-0.0404,-0.0403,-0.0402,-0.0401,-0.0328,-0.0327,-0.0326,0,0,0,0,0,0,0,0,0,0,0,0,0,-0.0627,-0.0626,-0.0552,-0.0551,-0.055,-0.0479,-0.0478,-0.0477,-0.0404,-0.0403,-0.0402,-0.0401,-0.0328,-0.0327,-0.0326,0,0,0,0,0,0,0,0,0,0,0,0,0,-0.0578,-0.0625,-0.0552,-0.0505,-0.05,-0.0479,-0.0478,-0.0476,-0.0404,-0.0403,-0.0401,-0.04,-0.0329,-0.0327,-0.0326,-0.0346,0,0,-0.0321,-0.032,0,0,0,0,0,0,0,0,-0.0581,-0.0575,-0.0513,-0.0508,-0.0502,-0.0449,-0.0477,-0.0433,-0.0405,-0.0441,-0.0401,-0.0399,-0.037,-0.0365,-0.0354,-0.0342,-0.0339,-0.0321,-0.032,-0.0319,-0.0319,0,0,0,0,0,0,0,-0.0584,-0.0578,-0.0523,-0.0512,-0.0506,-0.0487,-0.0479,-0.0469,-0.0414,-0.0437,-0.0432,-0.0424,-0.0366,-0.0356,-0.0352,-0.0338,-0.0321,-0.032,-0.0319,-0.0318,-0.0335,-0.0336,0,0,0,0,0,0,-0.0595,-0.0581,-0.0525,-0.0521,-0.0539,-0.0487,-0.0477,-0.0468,-0.0414,-0.0405,-0.0426,-0.0421,-0.0359,-0.0354,-0.0349,-0.0366,-0.0319,-0.0318,-0.0317,-0.0334,-0.0335,-0.0337,0,0,0,0,0,0,-0.0597,-0.0591,-0.0528,-0.0549,-0.054,-0.0487,-0.0477,-0.0467,-0.0456,-0.0405,-0.0395,-0.0425,-0.0358,-0.0351,-0.0346,-0.0363,-0.0317,-0.0316,-0.0332,-0.0334,-0.0336,-0.0403,0,0,0,0,0,0,-0.0599,-0.0592,-0.0599,-0.055,-0.0539,-0.0527,-0.0478,-0.0467,-0.0453,-0.0447,-0.0402,-0.0393,-0.0356,-0.0349,-0.0345,-0.036,-0.0315,-0.033,-0.0333,-0.0335,-0.0399,-0.0407,-0.0414,0,0,0,0,0,-0.0602,-0.0622,-0.06,-0.0594,-0.0547,-0.0528,-0.0522,-0.0479,-0.0455,-0.0462,-0.0428,-0.0394,-0.0362,-0.0349,-0.0344,-0.0359,-0.0329,-0.0332,-0.0335,-0.0396,-0.0406,-0.0414,0,0,0,0,0,0,-0.0676,-0.0615,-0.059,-0.0595,-0.0567,-0.0516,-0.0523,-0.0491,-0.047,-0.0465,-0.0412,-0.0403,-0.0403,-0.038,-0.0367,-0.0373,-0.034,-0.0343,-0.0388,-0.0397,-0.0405,-0.041,-0.0313,0,0,0,0,0,-0.0693,-0.0682,-0.0629,-0.0639,-0.0626,-0.0577,-0.0567,-0.0536,-0.0505,-0.0493,-0.046,-0.0432,-0.0414,-0.0405,-0.0387,-0.0395,-0.0383,-0.0403,-0.041,-0.0417,-0.0419,-0.0419,-0.0427,-0.0347,-0.0347,-0.0347,0,0,-0.0728,-0.0693,-0.069,-0.0653,-0.0628,-0.0617,-0.0568,-0.056,-0.0551,-0.0492,-0.0485,-0.0459,-0.0424,-0.0425,-0.0424,-0.0406,-0.0438,-0.0421,-0.0426,-0.0425,-0.0423,-0.0431,-0.0437,-0.0349,-0.0349,-0.0348,0,0,-0.0786,-0.0759,-0.0763,-0.0738,-0.0699,-0.0666,-0.0667,-0.062,-0.06,-0.0591,-0.0546,-0.0534,-0.0507,-0.0483,-0.0467,-0.0511,-0.0478,-0.0507,-0.0546,-0.0547,-0.0553,-0.0558,-0.0572,-0.0578,-0.051,-0.051,-0.051,0,-0.0835,-0.0817,-0.0769,-0.0762,-0.0746,-0.0691,-0.0693,-0.0671,-0.0629,-0.0619,-0.0599,-0.0561,-0.0534,-0.0527,-0.0537,-0.0527,-0.0525,-0.0512,-0.0556,-0.0561,-0.0565,-0.0577,-0.0583,-0.0513,-0.0513,-0.0513,-0.0512,0,-0.0877,-0.0865,-0.0872,-0.0831,-0.0816,-0.0814,-0.0765,-0.0755,-0.0724,-0.0693,-0.0683,-0.0647,-0.0619,-0.0615,-0.0587,-0.0604,-0.0593,-0.0566,-0.0531,-0.0577,-0.0588,-0.0592,-0.0519,-0.0517,-0.0516,-0.0515,0,0,-0.0982,-0.0912,-0.0915,-0.0895,-0.0847,-0.0836,-0.0831,-0.0802,-0.0794,-0.0766,-0.0759,-0.0735,-0.0707,-0.0689,-0.0657,-0.0657,-0.0691,-0.0628,-0.0627,-0.064,-0.0705,-0.0726,-0.0733,-0.0669,-0.067,-0.067,-0.0708,0,-0.1031,-0.1017,-0.0972,-0.0972,-0.0959,-0.0904,-0.0899,-0.0868,-0.0838,-0.0821,-0.0788,-0.0771,-0.0737,-0.0725,-0.0723,-0.0688,-0.0704,-0.0685,-0.0661,-0.066,-0.0671,-0.0738,-0.0761,-0.0798,-0.0712,-0.0712,-0.0713,0,-0.1087,-0.1061,-0.1059,-0.1008,-0.1001,-0.0997,-0.0965,-0.0951,-0.0914,-0.0891,-0.0869,-0.0832,-0.0821,-0.0789,-0.0772,-0.076,-0.0747,-0.0728,-0.0728,-0.0724,-0.069,-0.0735,-0.0809,-0.0815,-0.072,-0.0719,-0.0719,0,-0.1162,-0.1126,-0.1119,-0.1103,-0.1045,-0.1042,-0.1018,-0.0979,-0.0964,-0.0936,-0.0925,-0.0897,-0.0881,-0.086,-0.0815,-0.0796,-0.0802,-0.0767,-0.0782,-0.0783,-0.0786,-0.0787,-0.0858,-0.078,-0.078,-0.0779,-0.0779,0,-0.1221,-0.1222,-0.1151,-0.1147,-0.1145,-0.1092,-0.1092,-0.1062,-0.1027,-0.1015,-0.0967,-0.0957,-0.0898,-0.088,-0.0845,-0.0835,-0.0829,-0.081,-0.08,-0.0814,-0.0816,-0.0804,-0.08,-0.0781,-0.0781,-0.078,-0.078,0,-0.1305,-0.1258,-0.1247,-0.1191,-0.1176,-0.1177,-0.1129,-0.1122,-0.1087,-0.1072,-0.1066,-0.1011,-0.0988,-0.094,-0.0904,-0.088,-0.0878,-0.0862,-0.089,-0.0884,-0.0901,-0.09,-0.0968,-0.0973,-0.0892,-0.0893,-0.0894,0,-0.1346,-0.1344,-0.1287,-0.1275,-0.1252,-0.1234,-0.1216,-0.1164,-0.1148,-0.1103,-0.1101,-0.1074,-0.1049,-0.1013,-0.097,-0.0942,-0.0924,-0.0949,-0.0919,-0.0931,-0.0922,-0.0922,-0.0921,-0.0956,-0.0957,-0.0958,-0.0959,0,-0.1422,-0.1398,-0.1376,-0.1344,-0.1325,-0.1297,-0.1268,-0.1261,-0.12,-0.1185,-0.1159,-0.114,-0.1101,-0.1073,-0.1038,-0.1011,-0.0975,-0.0968,-0.097,-0.0984,-0.0999,-0.0989,-0.0908,-0.0967,-0.0967,-0.0966,-0.0965,-0.0965,-0.1484,-0.1479,-0.1437,-0.1413,-0.1384,-0.1357,-0.1346,-0.1309,-0.1287,-0.1251,-0.122,-0.1197,-0.1156,-0.1104,-0.108,-0.1059,-0.1042,-0.1045,-0.1046,-0.1047,-0.1052,-0.1003,-0.1053,-0.1053,-0.1052,-0.1052,-0.1052,0,-0.1557,-0.1526,-0.1504,-0.1463,-0.1443,-0.1409,-0.1373,-0.1358,-0.1338,-0.1303,-0.1279,-0.1248,-0.122,-0.1173,-0.1141,-0.1133,-0.1115,-0.1126,-0.1126,-0.112,-0.107,-0.1071,-0.1141,-0.1141,-0.1141,-0.1141,-0.1141,-0.1141,-0.1593,-0.1581,-0.1552,-0.1525,-0.1494,-0.147,-0.1452,-0.1425,-0.1397,-0.1364,-0.134,-0.1309,-0.1268,-0.1232,-0.1204,-0.1191,-0.118,-0.1197,-0.1178,-0.1132,-0.1124,-0.1116,-0.1117,-0.1195,-0.1195,-0.1229,-0.123,-0.123]},{"header":{"parameterUnit":"m.s-1","parameterCategory":1,"la1":30.2991,"la2":30.254,"lo1":-89.0895,"lo2":-89.0444,"dy":0.0017,"dx":0.0017,"nx":28,"ny":28,"refTime":"2025-11-07T03:00:00:Z","depth":0,"parameterNumber":3,"parameterNumberName":"V-component_of_WINDS"},"data":[0,0,0,0,0,0,0,0,0,0,0,0,0,0,0,0,0,0,0,0,0,0,0,0,0,0,0,0,0,0,0,0,0,0,0,0,0,0,0,0,0,0,0,0,0,0,0,0,0,0,0,0,0,0,0,0,0,0,2.8205,2.8206,0,2.8244,2.8245,2.8245,2.8275,2.8276,2.8276,2.8276,2.8315,2.8316,2.8317,0,0,0,0,0,0,0,0,0,0,0,0,0,2.8158,2.8159,2.8205,2.8206,2.8206,2.8244,2.8245,2.8245,2.8275,2.8276,2.8276,2.8276,2.8315,2.8316,2.8317,0,0,0,0,0,0,0,0,0,0,0,0,0,2.8186,2.8159,2.8205,2.8226,2.8228,2.8244,2.8245,2.8245,2.8275,2.8276,2.8276,2.8276,2.8315,2.8316,2.8317,2.8315,0,0,2.832,2.8321,0,0,0,0,0,0,0,0,2.8184,2.8187,2.8222,2.8225,2.8227,2.8255,2.8242,2.8269,2.8275,2.8257,2.8276,2.8277,2.8295,2.8298,2.8304,2.8317,2.8319,2.832,2.8321,2.8322,2.8322,0,0,0,0,0,0,0,2.8182,2.8186,2.8221,2.8223,2.8226,2.8233,2.8238,2.8247,2.8273,2.8259,2.8261,2.8265,2.8296,2.8303,2.8305,2.8319,2.832,2.8321,2.8322,2.8323,2.8335,2.8335,0,0,0,0,0,0,2.8177,2.8184,2.822,2.8222,2.8206,2.8234,2.8239,2.8246,2.8273,2.8278,2.8265,2.8267,2.8301,2.8304,2.8307,2.8308,2.8322,2.8323,2.8323,2.8335,2.8335,2.8334,0,0,0,0,0,0,2.8176,2.818,2.8218,2.8204,2.8209,2.8234,2.8242,2.8246,2.8253,2.8278,2.8282,2.8267,2.8301,2.8305,2.8313,2.8309,2.8323,2.8324,2.8336,2.8335,2.8335,2.8309,0,0,0,0,0,0,2.8174,2.8179,2.8179,2.8203,2.821,2.8224,2.8242,2.8247,2.8255,2.8257,2.8281,2.8285,2.8302,2.8311,2.8314,2.8311,2.8325,2.8336,2.8335,2.8335,2.831,2.8308,2.8305,0,0,0,0,0,2.8173,2.8169,2.8178,2.8182,2.8209,2.8223,2.8227,2.8246,2.8254,2.8254,2.8271,2.8284,2.8309,2.8312,2.8316,2.8313,2.8336,2.8336,2.8335,2.8311,2.8308,2.8305,0,0,0,0,0,0,2.8142,2.8173,2.8183,2.8188,2.8203,2.8228,2.8229,2.8242,2.8255,2.8257,2.828,2.8285,2.8291,2.8303,2.8305,2.8314,2.8325,2.8325,2.8306,2.8303,2.83,2.8298,2.8326,0,0,0,0,0,2.8137,2.8145,2.8171,2.8173,2.818,2.8203,2.821,2.8224,2.824,2.8246,2.8263,2.8278,2.829,2.8297,2.8309,2.8312,2.8318,2.8312,2.831,2.8307,2.8307,2.8311,2.8309,2.8332,2.8332,2.8332,0,0,2.8124,2.8142,2.8146,2.8167,2.8181,2.819,2.8208,2.8216,2.8223,2.8247,2.8257,2.827,2.8289,2.8295,2.8298,2.8305,2.8302,2.8306,2.8304,2.8305,2.831,2.8308,2.8306,2.8331,2.8331,2.8331,0,0,2.8106,2.812,2.8124,2.8137,2.8157,2.8173,2.8174,2.8197,2.8207,2.8217,2.8236,2.8245,2.8264,2.8277,2.8286,2.8275,2.8289,2.8278,2.8265,2.8269,2.8267,2.8266,2.8263,2.8262,2.8278,2.8278,2.8278,0,2.8088,2.8102,2.8124,2.8131,2.8141,2.8164,2.8168,2.818,2.8203,2.8209,2.8216,2.8241,2.8255,2.8266,2.8263,2.827,2.8272,2.8275,2.8266,2.8265,2.8264,2.8261,2.826,2.8276,2.8276,2.8277,2.8277,0,2.8079,2.8089,2.809,2.8112,2.8122,2.8127,2.815,2.8157,2.8171,2.8186,2.8196,2.8215,2.8231,2.8235,2.8247,2.8247,2.8251,2.8261,2.8273,2.826,2.8258,2.8257,2.8274,2.8275,2.8275,2.8276,0,0,2.8043,2.8078,2.8078,2.8089,2.8114,2.8122,2.813,2.8147,2.8153,2.8168,2.8175,2.8192,2.8202,2.8213,2.8227,2.8231,2.8223,2.8241,2.8242,2.8238,2.8225,2.8218,2.8216,2.8232,2.8232,2.8232,2.8224,0,2.8029,2.8044,2.8064,2.8073,2.8083,2.8106,2.8112,2.8129,2.8143,2.8154,2.817,2.8182,2.8194,2.8201,2.8205,2.8222,2.822,2.8223,2.824,2.824,2.8235,2.8215,2.8207,2.8199,2.8223,2.8223,2.8223,0,2.8015,2.803,2.804,2.8066,2.807,2.8076,2.8094,2.8104,2.8123,2.8134,2.8146,2.8163,2.8172,2.8183,2.8198,2.8199,2.8207,2.8217,2.8217,2.822,2.8231,2.8218,2.8196,2.8195,2.8222,2.8222,2.8222,0,2.7989,2.8011,2.8021,2.8029,2.8059,2.8063,2.8075,2.8095,2.8105,2.812,2.8127,2.8143,2.8153,2.8165,2.8186,2.8192,2.8199,2.8211,2.8209,2.8208,2.8209,2.8209,2.8189,2.8213,2.8213,2.8213,2.8213,0,2.7972,2.7977,2.8009,2.8015,2.8022,2.8045,2.8052,2.8066,2.8084,2.8093,2.8114,2.8122,2.8149,2.816,2.8177,2.8187,2.8191,2.82,2.8205,2.8199,2.8198,2.8204,2.8206,2.8213,2.8213,2.8213,2.8213,0,2.7943,2.7965,2.7977,2.8005,2.8012,2.8016,2.804,2.8046,2.8063,2.8074,2.8078,2.8104,2.8119,2.8141,2.8162,2.8174,2.8182,2.8188,2.8175,2.8178,2.8175,2.8175,2.816,2.8159,2.8183,2.8182,2.8182,0,2.7931,2.7936,2.7965,2.7973,2.7985,2.7997,2.8007,2.8031,2.8041,2.8064,2.8069,2.8085,2.81,2.8123,2.8144,2.8161,2.8169,2.8162,2.8171,2.8166,2.817,2.817,2.8171,2.816,2.8159,2.8159,2.8159,0,2.7908,2.7919,2.7933,2.7951,2.7963,2.7978,2.7994,2.8,2.8027,2.8037,2.8053,2.8065,2.8088,2.8104,2.8124,2.8138,2.8153,2.8156,2.8157,2.8151,2.8143,2.8148,2.817,2.8156,2.8156,2.8157,2.8157,2.8157,2.7888,2.7894,2.7916,2.7931,2.7946,2.7961,2.7969,2.7987,2.8001,2.8022,2.8035,2.8051,2.8072,2.81,2.8113,2.8126,2.8133,2.8133,2.8133,2.8133,2.8132,2.8141,2.813,2.813,2.813,2.813,2.813,0,2.7867,2.7882,2.7896,2.7919,2.7931,2.7945,2.7964,2.7974,2.7987,2.8006,2.802,2.8039,2.8056,2.8079,2.8098,2.8104,2.8112,2.8108,2.8108,2.8111,2.8124,2.8123,2.8102,2.8102,2.8102,2.8102,2.8102,2.8102,2.7857,2.7869,2.7882,2.7902,2.7917,2.7933,2.7943,2.7957,2.7972,2.7993,2.8007,2.8022,2.8043,2.8063,2.808,2.8086,2.8093,2.8087,2.8096,2.8107,2.811,2.8113,2.8111,2.8088,2.8088,2.8082,2.8081,2.8081]}]]